Regional Weather Roundup
Issued by NWS

Home | Current Version | Previous Version | Text Only | Print | Product List | Glossary Off
Versions: 1 2 3 4 5 6 7 8 9 10 11 12 13 14 15 16 17 18 19 20 21 22 23 24 25 26 27

000
ASUS45 KCYS 220310
RWRWY

WYOMING REGIONAL WEATHER ROUNDUP
NATIONAL WEATHER SERVICE CHEYENNE WY
800 PM MST SAT JAN 21 2017

NOTE:  "FAIR" INDICATES FEW OR NO CLOUDS BELOW 12,000 FEET
WITH NO SIGNIFICANT WEATHER AND/OR OBSTRUCTIONS TO VISIBILITY.

WYZ001-220400-
YELLOWSTONE NATIONAL PARK

CITY           SKY/WX    TMP DP  RH WIND       PRES   REMARKS
LK YELLOWSTONE   N/A     20  16  84 W6        29.68R WCI  12
W YELLOWSTONE  NOT AVBL

$$
WYZ002>013-054>058-071-098>099-220400-
NORTHERN WYOMING

CITY           SKY/WX    TMP DP  RH WIND       PRES   REMARKS
JACKSON        MOCLDY    25  21  86 CALM      29.70R
CODY           CLOUDY    23  17  78 CALM      29.63R
GREYBULL       CLOUDY    13   9  84 CALM      29.66R
WORLAND        CLOUDY    16  14  92 CALM      29.64R
SHERIDAN       FAIR      22  16  78 VRB6      29.61R WCI  14
BUFFALO        FAIR      26  17  68 SW6       29.59R WCI  19
GILLETTE       FAIR      28  26  92 SW6       29.59R WCI  22
HULETT         FAIR      23  21  93 CALM      29.59R
NEWCASTLE      FOG       23  23 100 NW5       29.60R VSB 1/2 WCI  17

$$
WYZ014>020-022>026-101>103-220400-
CENTRAL WYOMING

CITY           SKY/WX    TMP DP  RH WIND       PRES   REMARKS
BIG PINEY      FAIR      19  13  77 N10       29.71R WCI   7
PINEDALE       FAIR      18  14  86 CALM      29.70R
DUBOIS         NOT AVBL
LANDER         MOCLDY    17  14  88 SE5       29.63R WCI  10
RIVERTON       MOCLDY   N/A N/A N/A W7        29.64R
CASPER         FAIR      21  15  78 W8        29.61R WCI  11
DOUGLAS        FAIR      26  21  81 W3        29.59R

$$
WYZ021-027>030-104>119-220400-
SOUTHERN WYOMING

CITY           SKY/WX    TMP DP  RH WIND       PRES   REMARKS
EVANSTON       MOCLDY    17  13  84 W13       29.78R WCI   4
ROCK SPRINGS   CLOUDY    25  18  74 W24G31    29.70R WCI   9
RAWLINS        CLOUDY    22  16  78 W12       29.66R WCI  10
LARAMIE        MOCLDY    17  13  84 S5        29.59R WCI  10
CHEYENNE       CLOUDY    30  19  63 N5        29.58R WCI  25
TORRINGTON     CLOUDY    33  24  69 NW5       29.57R WCI  29

$$




USA.gov is the U.S. government's official web portal to all federal, state and local government web resources and services.